Location: Almendral de la Cañada
(40.1846°N, 4.7417°W)
Time: 16:24:48
(UTC+00:00)

Daily predictions for brighter satellites

Satellite Brightness Start Highest point End
(mag) Time Altitude Azimuth Time Altitude Azimuth Time Altitude Azimuth
CARTOSAT-1 3.5 20:14:19 10° SSE 20:18:34 86° ENE 20:22:51 10° N
CZ-4 R/B 2.9 20:17:47 10° SSW 20:21:25 36° W 20:25:08 10° NNW
Cosmos 2026 Rocket 4.0 20:15:29 10° S 20:21:37 68° E 20:27:41 10° NNE
Cosmos 1066 Rocket 4.4 20:16:19 10° S 20:22:01 57° E 20:27:41 10° NNE
Cosmos 1470 Rocket 4.3 20:19:37 10° N 20:23:40 36° ENE 20:27:38 10° SE
USA 234 3.3 20:19:28 10° NE 20:25:59 66° SE 20:32:27 10° SW
DELTA 2 DEB (DPAF) 4.0 20:22:18 10° NNE 20:26:33 89° W 20:30:45 10° SSW
Cosmos 1666 Rocket 3.6 20:26:49 10° N 20:31:10 89° W 20:35:30 10° S
Cosmos 2285 Rocket 4.0 20:25:22 10° SSW 20:31:41 83° ESE 20:38:05 10° NNE
Atlas Centaur 2 3.6 20:27:36 10° SW 20:34:58 39° S 20:42:28 10° ESE
ERS-1 Rocket 4.1 20:33:21 10° SE 20:37:33 28° ENE 20:41:46 10° N
Resurs 01 Rocket 2.4 20:34:49 10° S 20:39:07 52° W 20:43:25 10° NNW
SL-16 R/B 4.0 20:35:15 10° N 20:39:07 18° NE 20:42:59 10° E
Cosmos 2082 Rocket 2.2 20:34:43 10° SSW 20:40:26 85° ESE 20:46:10 10° NNE
Cosmos 1763 Rocket 4.0 20:36:10 10° N 20:41:11 44° ENE 20:45:43 12° SE
Cosmos 2369 4.0 20:35:38 10° NNW 20:41:16 55° ENE 20:46:32 12° SE
Lacrosse 5 rocket 3.0 20:38:03 10° WNW 20:41:36 27° SW 20:45:03 10° S
SPOT 5 3.0 20:42:41 11° SE 20:46:41 48° ENE 20:50:52 10° N
IRIDIUM 103 4.4 20:41:45 10° N 20:46:58 66° E 20:52:08 10° SSE
Cosmos 1933 Rocket 4.4 20:43:55 10° N 20:47:58 34° ENE 20:51:18 14° SE
Cosmos 1470 3.5 20:45:10 10° NNE 20:48:33 33° ENE 20:51:09 15° SE
Cosmos 1626 3.9 20:47:03 10° SW 20:49:50 28° WNW 20:52:39 10° NNW
USA 186 4.4 20:48:33 10° SW 20:51:01 19° W 20:53:30 10° NW
Cosmos 1908 4.2 20:52:36 10° NNE 20:55:43 27° ENE 20:57:42 17° ESE
Cosmos 1674 2.4 20:54:25 10° S 20:57:52 87° W 21:01:22 10° N
IRS-1C Rocket 4.3 20:54:03 13° SSE 20:58:41 58° ENE 21:03:51 10° N
KORONAS-FOTON 3.6 21:00:47 10° S 21:04:29 85° E 21:08:13 10° N
IRIDIUM 106 4.4 21:00:01 10° N 21:05:16 84° W 21:10:29 10° S
Ariane Rocket 3.8 21:03:07 16° SE 21:06:35 36° ENE 21:11:12 10° N
Cosmos 1697 Rocket 4.2 21:02:13 10° NW 21:07:05 31° WSW 21:11:56 10° SSW
Cosmos 1842 3.2 21:04:21 10° S 21:08:00 79° W 21:11:39 10° N
Cosmos 468 Rocket 4.3 21:03:17 10° N 21:08:23 51° ENE 21:11:55 19° SE
MOS 1 4.5 21:07:26 10° S 21:13:03 72° WSW 21:18:43 10° NNW
COSMOS 2406 3.7 21:07:58 10° SSW 21:13:40 65° WNW 21:19:24 10° NNE
SPOT 3 Rocket 4.2 21:12:14 19° SE 21:15:30 40° ENE 21:20:18 10° N
Meteor 1-13 Rocket 4.3 21:10:50 10° S 21:16:35 63° E 21:22:15 10° NNE
MetOp-B 4.2 21:13:09 13° S 21:17:58 80° WSW 21:23:20 10° NNW
ARGOS Delta rocket 3.8 21:18:53 15° S 21:22:38 75° W 21:27:03 10° NNW
Cosmos 1553 Rocket 4.0 21:16:46 10° N 21:22:58 87° W 21:28:25 14° S
CZ-4C R/B 4.4 21:19:09 10° N 21:23:08 47° WNW 21:27:06 10° SSW
Cosmos 2322 Rocket 3.6 21:19:19 10° N 21:23:58 25° NE 21:27:28 15° ESE
Cosmos 1980 Rocket 2.9 21:18:39 10° NW 21:24:08 50° WSW 21:28:52 13° S
S3M 4.3 21:18:54 10° N 21:25:07 52° ENE 21:29:06 22° SSE
Okean-O 3.8 21:23:01 10° SSW 21:27:06 38° W 21:31:14 10° NNW
SJ 16-02 3.3 21:28:53 13° E 21:28:53 13° E 21:30:23 10° ENE
Cosmos 2278 3.9 21:27:32 10° NNW 21:33:11 59° ENE 21:36:26 25° SE
Landsat 4 3.7 21:32:54 35° SE 21:34:02 54° ENE 21:37:25 10° N
Landsat 5 4.2 21:30:28 10° NNE 21:34:07 33° E 21:35:02 29° SE
USA 245 2.9 21:34:18 34° S 21:35:36 82° W 21:39:27 10° NNW
Cosmos 2266 Rocket 4.0 21:31:15 15° S 21:36:31 73° E 21:42:53 10° N
Tiangong -2.3 21:33:29 10° WNW 21:36:39 79° SSW 21:37:28 46° ESE
Cosmos 1400 Rocket 2.8 21:35:14 30° SSE 21:36:57 59° E 21:40:46 10° NNE
Cosmos 540 Rocket 3.5 21:33:17 10° NNW 21:38:27 77° WSW 21:41:30 25° S
Cosmos 1707 3.9 21:36:46 10° SSW 21:40:08 37° WNW 21:43:32 10° N
Terra 1.8 21:37:47 25° SSE 21:40:34 87° WSW 21:45:18 10° NNW
Cosmos 968 Rocket 4.3 21:41:01 27° SE 21:42:15 31° E 21:46:44 10° NE
Cosmos 1733 Rocket 4.2 21:39:17 10° NNE 21:43:07 28° ENE 21:44:16 25° ESE
Cosmos 2237 4.3 21:39:20 10° NNW 21:45:03 65° ENE 21:47:58 29° SE
Cosmos 2228 Rocket 3.5 21:44:42 33° SE 21:46:14 46° E 21:50:36 10° NNE
SL-08 ROCKET BODY 4.4 21:42:20 18° S 21:47:04 81° E 21:53:11 10° N
Okean O Rocket 4.4 21:49:54 10° WSW 21:51:09 11° W 21:52:23 10° WNW
ATLAS CENTAUR R/B 1.8 21:52:13 34° E 21:52:13 34° E 21:54:48 10° NE
Cosmos 2219 Rocket 4.1 21:48:39 10° N 21:52:28 18° NE 21:55:47 12° E
SeaSat 1 3.0 21:51:57 25° S 21:54:35 51° WSW 21:59:23 10° NW
Meteor 2-10 Rocket 3.7 21:52:43 10° N 21:58:18 67° ENE 22:00:34 35° SSE
Cosmos 1953 4.4 21:58:52 10° NE 22:00:45 13° ENE 22:00:51 13° ENE
Meteor 1-15 Rocket 4.1 21:55:25 10° N 22:01:00 87° W 22:03:46 31° S
Meteor 1-23 Rocket 4.2 21:58:52 22° S 22:02:36 88° W 22:08:20 10° N
Cosmos 1869 Rocket 4.0 21:59:54 10° NNW 22:04:16 58° W 22:06:16 30° SSW
Okean 1-7 4.3 22:04:58 25° E 22:04:58 25° E 22:08:26 10° NE
BREEZE-M DEB (TANK) 3.9 22:06:04 10° NNW 22:08:00 25° NNE 22:09:09 20° ENE
MOS 1 Rocket 4.0 22:05:50 27° S 22:08:44 61° W 22:14:03 10° NNW
Cosmos 2360 Rocket 2.7 22:10:33 10° NNW 22:16:03 48° ENE 22:18:06 34° ESE
ERS-1 Rocket 4.3 22:13:07 18° SSW 22:16:09 33° W 22:20:41 10° NNW
Cosmos 2315 Rocket 4.0 22:09:50 10° N 22:16:14 88° E 22:19:12 35° S
SL-14 R/B 3.4 22:17:25 48° SW 22:18:17 67° W 22:22:04 10° N
Cosmos 841 Rocket 3.5 22:13:43 10° NNW 22:18:59 79° WSW 22:20:45 43° S
RESURS DK-1 2.3 22:16:38 10° NNW 22:20:42 68° ENE 22:21:10 61° ESE
Spot 2 Rocket 4.4 22:18:21 24° SSW 22:20:53 41° W 22:25:40 10° NNW
Cosmos 2333 Rocket 2.7 22:15:31 10° NNW 22:21:05 49° ENE 22:23:08 34° ESE
Meteor 1-12 Rocket 4.4 22:15:45 10° NNW 22:21:46 77° W 22:24:25 35° S
Atlas Centaur 2 3.4 22:16:06 10° WSW 22:23:45 41° S 22:25:49 35° SSE
SL-16 R/B 2.3 22:18:08 10° NNW 22:23:48 71° WSW 22:25:47 41° S
Cosmos 1300 2.5 22:23:18 10° NNW 22:26:50 70° W 22:26:54 70° WSW
Aureole 3 3.0 22:30:50 84° SE 22:30:54 85° E 22:35:12 10° N
Cosmos 1833 4.1 22:30:09 39° S 22:32:18 78° ESE 22:37:56 10° NNE
Cosmos 1862 Rocket 3.6 22:32:47 50° SSW 22:33:48 71° W 22:38:12 10° N
Cosmos 1346 Rocket 2.7 22:32:38 10° NNW 22:36:30 72° W 22:36:35 72° WSW
Meteor 1-4 Rocket 3.6 22:41:49 32° N 22:41:49 32° N 22:43:36 10° N
Cosmos 1932 4.4 22:38:31 38° S 22:41:01 70° ESE 22:47:16 10° NE
Meteor 1-16 Rocket 4.3 22:40:06 10° N 22:46:03 79° E 22:47:38 51° SSE
Cosmos 1758 4.3 22:44:07 10° NNW 22:47:43 36° W 22:48:07 35° WSW
SL-27 R/B 4.2 22:50:57 24° NW 22:50:57 24° NW 22:52:44 10° N
ATLAS 2AS CENTAUR R/B 2.7 22:46:10 10° NNW 22:52:59 73° NE 22:55:16 43° SE
Cosmos 2333 4.3 22:47:42 10° NNW 22:53:29 69° ENE 22:54:50 51° SE
ARIANE 5 R/B 2.6 22:54:59 67° E 22:55:02 67° ENE 22:59:20 10° N
Okean 2 3.4 23:00:22 72° NW 23:00:22 72° NW 23:04:07 10° N
PSLV R/B 4.0 22:59:20 10° NNE 23:02:50 67° NNE 23:02:50 67° NNE
SJ 16-02 1.9 23:05:35 45° WSW 23:06:16 50° WNW 23:10:30 10° N
Cosmos 1745 Rocket 4.2 23:05:11 49° SE 23:06:23 56° E 23:12:35 10° NNE
Cosmos 1241 Rocket 4.4 23:04:14 34° SW 23:07:07 79° WNW 23:13:22 10° NNE
Cosmos 2322 Rocket 2.7 23:02:47 10° NW 23:08:15 48° WSW 23:09:15 43° SW
COSMOS 2455 3.8 23:08:58 31° E 23:08:58 31° E 23:13:40 10° NE
Cosmos 2297 Rocket 3.8 23:13:10 19° E 23:13:10 19° E 23:16:20 10° NE
Nadezhda 1 Rocket 4.0 23:14:11 10° N 23:20:29 69° E 23:21:42 56° SE
USA 281 3.2 23:19:37 52° S 23:21:16 74° WSW 23:27:52 10° NNW
GP-B 3.2 23:17:48 10° N 23:22:05 69° WNW 23:22:05 69° WNW
Cosmos 1386 Rocket 4.4 23:23:56 56° S 23:25:24 87° W 23:31:41 10° N
Cosmos 1315 Rocket 4.0 23:26:19 35° WNW 23:26:19 35° WNW 23:30:01 10° N
COSMOS 2428 3.4 23:21:26 10° N 23:26:52 44° ENE 23:28:13 37° E
ATLAS CENTAUR R/B 3.8 23:27:06 10° W 23:29:19 16° NW 23:31:35 10° N
Cosmos 1814 Rocket 4.3 23:24:40 10° NNW 23:29:50 53° WSW 23:30:10 52° WSW
Cosmos 1908 Rocket 4.0 23:28:04 10° NNW 23:31:58 53° WNW 23:31:58 53° WNW
CZ-3 Stage 3 3.8 23:05:01 10° W 23:34:40 50° SSW 23:37:06 43° S
Cosmos 1782 Rocket 3.8 23:30:29 10° N 23:34:15 64° NNE 23:34:15 64° NNE
H-2A R/B 2.8 23:35:29 67° NW 23:35:29 67° NW 23:39:17 10° NNW
Cosmos 1953 3.6 23:33:10 10° NNW 23:35:58 33° WNW 23:35:58 33° WNW
Cosmos 2219 Rocket 2.1 23:31:19 10° NNW 23:36:59 73° WSW 23:37:28 69° SSW
Cosmos 371 Rocket 4.1 23:39:00 39° ENE 23:39:00 39° ENE 23:42:42 10° NNE
Cosmos 1455 3.8 23:35:17 10° NNW 23:37:24 28° NW 23:37:24 28° NW
Cosmos 2208 Rocket 4.3 23:34:03 10° N 23:39:10 55° ENE 23:39:34 53° E
Cosmos 158 Rocket 4.3 23:36:27 10° N 23:41:39 54° ENE 23:42:07 52° E
Spot 4 3.8 23:42:36 80° WNW 23:42:36 80° WNW 23:47:17 10° NNW
ALOS 2 2.8 23:49:16 69° N 23:49:16 69° N 23:53:10 10° N
